Regional Weather Roundup
Issued by NWS

Home | Current Version | Previous Version | Graphics & Text | Print | Product List | Glossary On
Versions: 1 2 3 4 5 6 7 8 9 10 11 12 13 14 15 16 17 18 19 20 21 22 23 24 25 26 27 28 29 30 31 32 33 34 35 36 37 38 39 40 41 42 43 44 45 46 47 48 49 50
000
ASUS45 KABQ 060601
RWRNM
NEW MEXICO REGIONAL WEATHER ROUNDUP
NATIONAL WEATHER SERVICE ALBUQUERQUE NM
1200 AM MDT FRI MAY 06 2016

NOTE: "FAIR" MEANS FEW OR NO CLOUDS BELOW 12,000 FEET AGL WITH NO
       SIGNIFICANT WEATHER OR OBSTRUCTIONS TO VISION.

      THIS PRODUCT IS RELEASED AS TWO VERSIONS.  ONE VERSION NEAR
      THE TOP OF THE HOUR CONTAINING PRELIMINARY DATA FROM ALBUQUERQUE
      AND OTHER STATIONS.  A FINAL VERSION WITH ADDITIONAL DATA IS
      ISSUED ABOUT 10 MINUTES AFTER THE HOUR.

NMZ501-503-504-510>518-060700-
NORTHWEST PLATEAU/NORTHCENTRAL MOUNTAINS

CITY           SKY/WX    TMP DP  RH WIND       PRES   REMARKS
FARMINGTON     FAIR      67  32  27 E9        29.93F
6HR MIN TEMP:  67; 6HR MAX TEMP:  80;

SANTA FE       FAIR      59  21  23 SE14      30.12S
6HR MIN TEMP:  59; 6HR MAX TEMP:  76;

TAOS           FAIR      55  23  28 SE6       30.16F
ANGEL FIRE     FAIR      50  22  32 NW3       30.26S

$$
NMZ402-403-502-505>509-060700-
WESTCENTRAL MOUNTAINS/SOUTHWEST MOUNTAINS

CITY           SKY/WX    TMP DP  RH WIND       PRES   REMARKS
GALLUP         FAIR      63  33  32 SE10      29.99F
6HR MIN TEMP:  61; 6HR MAX TEMP:  74; 6HR PCP: TRACE;

GRANTS         CLOUDY    56  34  43 S6        30.05F
SILVER CITY      N/A     68  14  12 SW6       30.03F

$$
NMZ407-409-411-412-060700-
SOUTHERN DESERTS

CITY           SKY/WX    TMP DP  RH WIND       PRES   REMARKS
LORDSBURG      FAIR      70   7   8 SE6       29.94S
DEMING         FAIR      71  26  18 NW5       29.94S
6HR MIN TEMP:  71; 6HR MAX TEMP:  89;

HOLLOMAN AFB   FAIR      78  24  13 SE23G30   29.93F
ALAMOGORDO     FAIR      79  25  13 SE24G31   29.95F
T OR C         FAIR      70  42  36 CALM      29.99F
6HR MIN TEMP:  69; 6HR MAX TEMP:  85; 6HR PCP: TRACE;


$$
NMZ519>523-060700-
CENTRAL VALLEYS/CENTRAL HIGHLANDS

CITY           SKY/WX    TMP DP  RH WIND       PRES   REMARKS
ALBUQUERQUE    FAIR      69  23  17 SE15      30.00F
6HR MIN TEMP:  65; 6HR MAX TEMP:  82;

DOUBLE EAGLE   FAIR      62  28  27 SE9       30.05S
MORIARTY ARPT  FAIR      61  18  19 SE15G21   30.12F
6HR MIN TEMP:  60; 6HR MAX TEMP:  78;

CLINES CORNERS FAIR      56  20  24 S21       30.16F
6HR MIN TEMP:  56; 6HR MAX TEMP:  72;

BELEN          FAIR      68  20  16 SE15G21   30.01R
6HR MIN TEMP:  67; 6HR MAX TEMP:  83;

SOCORRO        NOT AVBL

$$
NMZ524>526-539-540-060700-
SOUTHCENTRAL MOUNTAINS

CITY           SKY/WX    TMP DP  RH WIND       PRES   REMARKS
RUIDOSO        NOT AVBL

$$
NMZ527>531-060700-
NORTHEAST HIGHLANDS/NORTHEAST PLAINS

CITY           SKY/WX    TMP DP  RH WIND       PRES   REMARKS
LAS VEGAS      FAIR      48  25  40 S9        30.18F
6HR MIN TEMP:  48; 6HR MAX TEMP:  73;

RATON          FAIR      53  26  35 CALM      30.15S
6HR MIN TEMP:  52; 6HR MAX TEMP:  76;

CLAYTON        FAIR      57  27  31 SW9       30.08S
6HR MIN TEMP:  57; 6HR MAX TEMP:  80;


$$
NMZ532>537-060700-
EASTCENTRAL PLAINS

CITY           SKY/WX    TMP DP  RH WIND       PRES   REMARKS
TUCUMCARI      FAIR      60  29  30 S12       30.04S
6HR MIN TEMP:  57; 6HR MAX TEMP:  86;

CANNON AFB     NOT AVBL
CLOVIS AIRPORT FAIR      55  28  35 S8        30.10S

$$
NMZ028-029-538-060700-
SOUTHEAST PLAINS

CITY           SKY/WX    TMP DP  RH WIND       PRES   REMARKS
ROSWELL        FAIR      57  24  28 SW5       30.04R
6HR MIN TEMP:  56; 6HR MAX TEMP:  86;

ARTESIA        FAIR      61  25  25 S8        30.04S
CARLSBAD       FAIR      61  25  25 S9        30.03R
6HR MIN TEMP:  61; 6HR MAX TEMP:  86;

HOBBS          FAIR      61  30  31 SE8       30.10R


$$




USA.gov is the U.S. government's official web portal to all federal, state and local government web resources and services.